Time,TemperatureF,DewpointF,PressureIn,WindDirection,WindDirectionDegrees,WindSpeedMPH,WindSpeedGustMPH,Humidity,HourlyPrecipIn,Conditions,Clouds,dailyrainin,SoftwareType,DateUTC
2013-08-13 00:00:00,78.6,77.1,29.77,WNW,291,0.0,0.0,95,0.00,,---,0.00,VWS V14.01,2013-08-13 04:00:00,
2013-08-13 00:10:00,78.5,77.9,29.77,WNW,291,0.0,0.0,98,0.00,,---,0.00,VWS V14.01,2013-08-13 04:10:00,
2013-08-13 00:20:00,78.5,78.5,29.78,WNW,291,0.0,0.0,100,0.00,,---,0.00,VWS V14.01,2013-08-13 04:20:00,
2013-08-13 00:30:00,78.5,78.5,29.78,WNW,291,0.0,0.0,100,0.00,,---,0.00,VWS V14.01,2013-08-13 04:30:00,
2013-08-13 00:40:00,78.5,78.5,29.78,WNW,291,0.0,0.0,100,0.00,,---,0.00,VWS V14.01,2013-08-13 04:40:00,
2013-08-13 00:50:00,78.5,78.5,29.79,SSW,199,1.0,2.0,100,0.00,,---,0.00,VWS V14.01,2013-08-13 04:50:00,
2013-08-13 01:00:00,77.2,77.2,29.82,West,270,0.0,18.0,100,0.16,,---,0.16,VWS V14.01,2013-08-13 05:00:00,
2013-08-13 01:10:00,75.1,75.1,29.82,West,261,2.0,5.0,100,0.29,,---,0.29,VWS V14.01,2013-08-13 05:10:00,
2013-08-13 01:20:00,75.1,75.1,29.82,West,261,0.0,2.0,100,0.29,,---,0.29,VWS V14.01,2013-08-13 05:20:00,
2013-08-13 01:30:00,73.5,73.5,29.80,West,261,0.0,0.0,100,0.32,,---,0.32,VWS V14.01,2013-08-13 05:30:00,
2013-08-13 01:40:00,73.2,73.2,29.80,West,261,0.0,0.0,100,0.32,,---,0.32,VWS V14.01,2013-08-13 05:40:00,
2013-08-13 01:50:00,73.0,73.0,29.79,West,261,0.0,0.0,100,0.32,,---,0.32,VWS V14.01,2013-08-13 05:50:00,
2013-08-13 02:00:00,72.7,72.7,29.78,West,261,0.0,0.0,100,0.32,,---,0.32,VWS V14.01,2013-08-13 06:00:00,
2013-08-13 02:10:00,72.5,72.5,29.78,West,261,0.0,0.0,100,0.17,,---,0.33,VWS V14.01,2013-08-13 06:10:00,
2013-08-13 02:20:00,72.7,72.7,29.77,West,261,0.0,0.0,100,0.05,,---,0.34,VWS V14.01,2013-08-13 06:20:00,
2013-08-13 02:30:00,72.7,72.7,29.78,West,261,0.0,0.0,100,0.06,,---,0.35,VWS V14.01,2013-08-13 06:30:00,
2013-08-13 02:40:00,72.5,72.5,29.78,West,261,0.0,0.0,100,0.04,,---,0.36,VWS V14.01,2013-08-13 06:40:00,
2013-08-13 02:50:00,72.3,72.3,29.77,West,260,0.0,0.0,100,0.04,,---,0.36,VWS V14.01,2013-08-13 06:50:00,
2013-08-13 03:00:00,72.1,72.1,29.76,West,260,0.0,0.0,100,0.04,,---,0.36,VWS V14.01,2013-08-13 07:00:00,
2013-08-13 03:10:00,72.1,72.1,29.76,West,260,0.0,0.0,100,0.04,,---,0.36,VWS V14.01,2013-08-13 07:10:00,
2013-08-13 03:20:00,72.1,72.1,29.76,West,260,0.0,0.0,100,0.03,,---,0.36,VWS V14.01,2013-08-13 07:20:00,
2013-08-13 03:30:00,72.1,72.1,29.78,West,261,0.0,0.0,100,0.02,,---,0.36,VWS V14.01,2013-08-13 07:30:00,
2013-08-13 03:40:00,72.3,72.3,29.78,WSW,256,0.0,0.0,100,0.01,,---,0.36,VWS V14.01,2013-08-13 07:40:00,
2013-08-13 03:50:00,72.5,72.5,29.77,WSW,256,0.0,0.0,100,0.01,,---,0.37,VWS V14.01,2013-08-13 07:50:00,
2013-08-13 04:00:00,72.7,72.7,29.75,ENE,69,0.0,0.0,100,0.02,,---,0.38,VWS V14.01,2013-08-13 08:00:00,
2013-08-13 04:10:00,72.7,72.7,29.75,ENE,69,0.0,0.0,100,0.03,,---,0.39,VWS V14.01,2013-08-13 08:10:00,
2013-08-13 04:20:00,72.7,72.7,29.75,ENE,71,0.0,0.0,100,0.04,,---,0.40,VWS V14.01,2013-08-13 08:20:00,
2013-08-13 04:30:00,72.7,72.7,29.74,ENE,71,0.0,0.0,100,0.05,,---,0.41,VWS V14.01,2013-08-13 08:30:00,
2013-08-13 04:40:00,72.7,72.7,29.74,ENE,71,0.0,0.0,100,0.05,,---,0.41,VWS V14.01,2013-08-13 08:40:00,
2013-08-13 04:50:00,72.7,72.7,29.72,ENE,71,0.0,0.0,100,0.05,,---,0.41,VWS V14.01,2013-08-13 08:50:00,
2013-08-13 05:00:00,72.7,72.7,29.72,ENE,71,0.0,0.0,100,0.04,,---,0.41,VWS V14.01,2013-08-13 09:00:00,
2013-08-13 05:10:00,72.7,72.7,29.72,ENE,71,0.0,0.0,100,0.03,,---,0.41,VWS V14.01,2013-08-13 09:10:00,
2013-08-13 05:20:00,72.7,72.7,29.73,ENE,71,0.0,0.0,100,0.02,,---,0.41,VWS V14.01,2013-08-13 09:20:00,
2013-08-13 05:30:00,72.7,72.7,29.73,ENE,71,0.0,0.0,100,0.01,,---,0.41,VWS V14.01,2013-08-13 09:30:00,
2013-08-13 05:40:00,72.7,72.7,29.73,ENE,71,0.0,0.0,100,0.00,,---,0.41,VWS V14.01,2013-08-13 09:40:00,
2013-08-13 05:50:00,72.7,72.7,29.73,ENE,71,0.0,0.0,100,0.00,,---,0.41,VWS V14.01,2013-08-13 09:50:00,
2013-08-13 06:00:00,72.7,72.7,29.73,ENE,71,0.0,0.0,100,0.00,,---,0.41,VWS V14.01,2013-08-13 10:00:00,
2013-08-13 06:10:00,72.7,72.7,29.73,ENE,71,0.0,0.0,100,0.00,,---,0.41,VWS V14.01,2013-08-13 10:10:00,
2013-08-13 06:20:00,72.7,72.7,29.71,ENE,71,0.0,0.0,100,0.00,,---,0.41,VWS V14.01,2013-08-13 10:20:00,
2013-08-13 06:30:00,72.7,72.7,29.72,ENE,71,0.0,0.0,100,0.00,,---,0.41,VWS V14.01,2013-08-13 10:30:00,
2013-08-13 06:40:00,72.7,72.7,29.72,ENE,71,0.0,0.0,100,0.00,,---,0.41,VWS V14.01,2013-08-13 10:40:00,
2013-08-13 06:50:00,72.7,72.7,29.72,ENE,71,0.0,0.0,100,0.00,,---,0.41,VWS V14.01,2013-08-13 10:50:00,
2013-08-13 07:00:00,72.7,72.7,29.72,ENE,71,0.0,0.0,100,0.00,,---,0.41,VWS V14.01,2013-08-13 11:00:00,
2013-08-13 07:10:00,72.7,72.7,29.72,ENE,71,0.0,0.0,100,0.00,,---,0.41,VWS V14.01,2013-08-13 11:10:00,
2013-08-13 07:20:00,72.7,72.7,29.74,ENE,71,0.0,0.0,100,0.00,,---,0.41,VWS V14.01,2013-08-13 11:20:00,
2013-08-13 07:30:00,72.7,72.7,29.74,ENE,71,0.0,0.0,100,0.00,,---,0.41,VWS V14.01,2013-08-13 11:30:00,
2013-08-13 07:40:00,72.7,72.7,29.74,ENE,71,0.0,0.0,100,0.00,,---,0.41,VWS V14.01,2013-08-13 11:40:00,
2013-08-13 07:50:00,72.7,72.7,29.75,ENE,71,0.0,0.0,100,0.00,,---,0.41,VWS V14.01,2013-08-13 11:50:00,
2013-08-13 08:00:00,72.7,72.7,29.75,ENE,71,0.0,0.0,100,0.00,,---,0.41,VWS V14.01,2013-08-13 12:00:00,
2013-08-13 08:10:00,72.7,72.7,29.75,ENE,71,0.0,0.0,100,0.00,,---,0.41,VWS V14.01,2013-08-13 12:10:00,
2013-08-13 08:20:00,74.2,74.2,29.73,ENE,71,0.0,0.0,100,0.00,,---,0.41,VWS V14.01,2013-08-13 12:20:00,
2013-08-13 08:30:00,74.6,74.6,29.73,NW,320,2.0,2.0,100,0.00,,---,0.41,VWS V14.01,2013-08-13 12:30:00,
2013-08-13 08:40:00,74.9,74.9,29.73,NW,319,0.0,2.0,100,0.00,,---,0.41,VWS V14.01,2013-08-13 12:40:00,
2013-08-13 08:50:00,75.4,75.4,29.73,North,6,0.0,2.0,100,0.00,,---,0.41,VWS V14.01,2013-08-13 12:50:00,
2013-08-13 09:00:00,75.4,75.4,29.74,NE,44,0.0,1.0,100,0.00,,---,0.41,VWS V14.01,2013-08-13 13:00:00,
2013-08-13 09:10:00,75.4,75.4,29.74,NNE,20,0.0,0.0,100,0.00,,---,0.41,VWS V14.01,2013-08-13 13:10:00,
2013-08-13 09:20:00,75.6,75.6,29.74,NNE,20,0.0,0.0,100,0.00,,---,0.41,VWS V14.01,2013-08-13 13:20:00,
2013-08-13 09:30:00,76.1,76.1,29.74,NE,51,0.0,1.0,100,0.00,,---,0.41,VWS V14.01,2013-08-13 13:30:00,
2013-08-13 09:40:00,76.3,76.3,29.74,NNW,336,0.0,5.0,100,0.00,,---,0.41,VWS V14.01,2013-08-13 13:40:00,
2013-08-13 09:50:00,76.8,76.8,29.74,WSW,246,0.0,1.0,100,0.00,,---,0.41,VWS V14.01,2013-08-13 13:50:00,
2013-08-13 10:00:00,77.2,77.2,29.74,WNW,298,0.0,5.0,100,0.00,,---,0.41,VWS V14.01,2013-08-13 14:00:00,
2013-08-13 10:10:00,77.0,77.0,29.74,West,264,0.0,2.0,100,0.00,,---,0.41,VWS V14.01,2013-08-13 14:10:00,
2013-08-13 10:20:00,77.4,77.4,29.74,NW,323,0.0,2.0,100,0.00,,---,0.41,VWS V14.01,2013-08-13 14:20:00,
2013-08-13 10:30:00,77.6,77.6,29.73,NW,315,0.0,0.0,100,0.00,,---,0.41,VWS V14.01,2013-08-13 14:30:00,
2013-08-13 10:40:00,77.9,77.9,29.73,WNW,288,0.0,0.0,100,0.00,,---,0.41,VWS V14.01,2013-08-13 14:40:00,
2013-08-13 10:50:00,78.6,78.6,29.74,West,267,0.0,1.0,100,0.00,,---,0.41,VWS V14.01,2013-08-13 14:50:00,
2013-08-13 11:00:00,79.6,79.6,29.74,SE,136,0.0,0.0,100,0.00,,---,0.41,VWS V14.01,2013-08-13 15:00:00,
2013-08-13 11:10:00,80.7,79.1,29.74,NW,315,0.0,0.0,95,0.00,,---,0.41,VWS V14.01,2013-08-13 15:10:00,
2013-08-13 11:20:00,82.0,80.4,29.74,SSE,148,0.0,1.0,95,0.00,,---,0.41,VWS V14.01,2013-08-13 15:20:00,
2013-08-13 11:30:00,83.2,80.6,29.74,West,265,0.0,3.0,92,0.00,,---,0.41,VWS V14.01,2013-08-13 15:30:00,
2013-08-13 11:40:00,83.8,80.6,29.74,NNE,24,0.0,1.0,90,0.00,,---,0.41,VWS V14.01,2013-08-13 15:40:00,
2013-08-13 11:50:00,84.3,81.1,29.74,NNW,329,0.0,1.0,90,0.00,,---,0.41,VWS V14.01,2013-08-13 15:50:00,
2013-08-13 12:00:00,84.7,80.4,29.73,SSE,147,0.0,1.0,87,0.00,,---,0.41,VWS V14.01,2013-08-13 16:00:00,
2013-08-13 12:10:00,85.7,80.3,29.73,South,176,0.0,1.0,84,0.00,,---,0.41,VWS V14.01,2013-08-13 16:10:00,
2013-08-13 12:20:00,86.3,81.3,29.73,West,277,0.0,3.0,85,0.00,,---,0.41,VWS V14.01,2013-08-13 16:20:00,
2013-08-13 12:30:00,87.2,82.1,29.71,North,0,0.0,1.0,85,0.00,,---,0.41,VWS V14.01,2013-08-13 16:30:00,
2013-08-13 12:40:00,87.2,81.4,29.71,South,181,0.0,5.0,83,0.00,,---,0.41,VWS V14.01,2013-08-13 16:40:00,
2013-08-13 12:50:00,87.8,82.4,29.71,North,359,0.0,1.0,84,0.00,,---,0.41,VWS V14.01,2013-08-13 16:50:00,
2013-08-13 13:00:00,88.0,81.1,29.70,West,281,0.0,2.0,80,0.00,,---,0.41,VWS V14.01,2013-08-13 17:00:00,
2013-08-13 13:10:00,85.7,80.3,29.73,South,176,0.0,1.0,84,0.00,,---,0.41,VWS V14.01,2013-08-13 17:10:00,
2013-08-13 13:20:00,88.8,81.8,29.69,NNE,16,0.0,0.0,80,0.00,,---,0.41,VWS V14.01,2013-08-13 17:20:00,
2013-08-13 13:30:00,88.2,81.2,29.69,NW,320,0.0,2.0,80,0.00,,---,0.41,VWS V14.01,2013-08-13 17:30:00,
2013-08-13 13:40:00,88.2,81.6,29.69,West,267,0.0,5.0,81,0.00,,---,0.41,VWS V14.01,2013-08-13 17:40:00,
2013-08-13 13:50:00,89.0,82.4,29.68,South,178,0.0,2.0,81,0.00,,---,0.41,VWS V14.01,2013-08-13 17:50:00,
2013-08-13 14:00:00,88.8,81.8,29.68,NW,313,0.0,1.0,80,0.00,,---,0.41,VWS V14.01,2013-08-13 18:00:00,
2013-08-13 14:10:00,89.3,80.7,29.68,NW,306,0.0,1.0,76,0.00,,---,0.41,VWS V14.01,2013-08-13 18:10:00,
2013-08-13 14:20:00,90.1,81.5,29.67,ENE,76,0.0,3.0,76,0.00,,---,0.41,VWS V14.01,2013-08-13 18:20:00,
2013-08-13 14:30:00,89.5,80.9,29.67,WNW,289,0.0,3.0,76,0.00,,---,0.41,VWS V14.01,2013-08-13 18:30:00,
2013-08-13 14:40:00,88.2,83.5,29.67,West,281,0.0,1.0,86,0.00,,---,0.41,VWS V14.01,2013-08-13 18:40:00,
2013-08-13 14:50:00,85.9,82.6,29.67,North,350,0.0,1.0,90,0.01,,---,0.42,VWS V14.01,2013-08-13 18:50:00,
2013-08-13 15:00:00,84.0,82.1,29.67,North,350,0.0,0.0,94,0.01,,---,0.42,VWS V14.01,2013-08-13 19:00:00,
2013-08-13 15:10:00,83.4,82.1,29.67,North,350,0.0,0.0,96,0.01,,---,0.42,VWS V14.01,2013-08-13 19:10:00,
2013-08-13 15:20:00,83.4,82.1,29.66,NNW,342,0.0,0.0,96,0.01,,---,0.42,VWS V14.01,2013-08-13 19:20:00,
2013-08-13 15:30:00,83.0,81.4,29.65,West,277,0.0,1.0,95,0.01,,---,0.42,VWS V14.01,2013-08-13 19:30:00,
2013-08-13 15:40:00,83.2,81.9,29.65,West,277,0.0,0.0,96,0.01,,---,0.42,VWS V14.01,2013-08-13 19:40:00,
2013-08-13 15:50:00,83.8,81.6,29.65,WNW,287,0.0,2.0,93,0.01,,---,0.42,VWS V14.01,2013-08-13 19:50:00,
2013-08-13 16:00:00,84.7,81.8,29.64,WNW,287,0.0,1.0,91,0.00,,---,0.42,VWS V14.01,2013-08-13 20:00:00,
2013-08-13 16:10:00,85.5,81.5,29.64,North,354,0.0,2.0,88,0.00,,---,0.42,VWS V14.01,2013-08-13 20:10:00,
2013-08-13 16:20:00,86.5,82.2,29.63,NNW,328,0.0,1.0,87,0.00,,---,0.42,VWS V14.01,2013-08-13 20:20:00,
2013-08-13 16:30:00,87.6,81.4,29.63,WNW,295,0.0,2.0,82,0.00,,---,0.42,VWS V14.01,2013-08-13 20:30:00,
2013-08-13 16:40:00,87.8,81.6,29.63,North,350,0.0,3.0,82,0.00,,---,0.42,VWS V14.01,2013-08-13 20:40:00,
2013-08-13 16:50:00,88.0,81.8,29.63,NW,308,0.0,6.0,82,0.00,,---,0.42,VWS V14.01,2013-08-13 20:50:00,
2013-08-13 17:00:00,87.8,81.2,29.63,West,281,0.0,1.0,81,0.00,,---,0.42,VWS V14.01,2013-08-13 21:00:00,
2013-08-13 17:10:00,87.0,80.5,29.63,West,281,0.0,0.0,81,0.00,,---,0.42,VWS V14.01,2013-08-13 21:10:00,
2013-08-13 17:20:00,86.5,82.9,29.62,NE,37,0.0,0.0,89,0.00,,---,0.42,VWS V14.01,2013-08-13 21:20:00,
2013-08-13 17:30:00,86.3,82.7,29.62,NW,319,0.0,0.0,89,0.00,,---,0.42,VWS V14.01,2013-08-13 21:30:00,
2013-08-13 17:40:00,86.5,83.2,29.62,NW,319,0.0,0.0,90,0.00,,---,0.42,VWS V14.01,2013-08-13 21:40:00,
2013-08-13 17:50:00,87.0,83.0,29.62,NW,312,0.0,0.0,88,0.00,,---,0.42,VWS V14.01,2013-08-13 21:50:00,
2013-08-13 18:00:00,86.5,80.7,29.62,West,271,0.0,2.0,83,0.00,,---,0.42,VWS V14.01,2013-08-13 22:00:00,
2013-08-13 18:10:00,86.1,80.7,29.62,West,261,0.0,0.0,84,0.00,,---,0.42,VWS V14.01,2013-08-13 22:10:00,
2013-08-13 18:20:00,85.5,80.8,29.62,West,261,0.0,0.0,86,0.00,,---,0.42,VWS V14.01,2013-08-13 22:20:00,
2013-08-13 18:30:00,85.3,79.9,29.62,West,263,0.0,0.0,84,0.00,,---,0.42,VWS V14.01,2013-08-13 22:30:00,
2013-08-13 18:40:00,85.1,80.1,29.62,West,263,0.0,0.0,85,0.00,,---,0.42,VWS V14.01,2013-08-13 22:40:00,
2013-08-13 18:50:00,84.9,79.9,29.61,West,263,0.0,0.0,85,0.00,,---,0.42,VWS V14.01,2013-08-13 22:50:00,
2013-08-13 19:00:00,84.5,80.2,29.61,West,263,0.0,0.0,87,0.00,,---,0.42,VWS V14.01,2013-08-13 23:00:00,
2013-08-13 19:10:00,84.5,80.6,29.61,West,264,0.0,0.0,88,0.00,,---,0.42,VWS V14.01,2013-08-13 23:10:00,
2013-08-13 19:20:00,83.8,79.9,29.63,WNW,282,0.0,2.0,88,0.00,,---,0.42,VWS V14.01,2013-08-13 23:20:00,
2013-08-13 19:30:00,83.8,79.9,29.64,WSW,257,0.0,0.0,88,0.00,,---,0.42,VWS V14.01,2013-08-13 23:30:00,
2013-08-13 19:40:00,81.6,77.7,29.64,WSW,257,0.0,0.0,88,0.00,,---,0.42,VWS V14.01,2013-08-13 23:40:00,
2013-08-13 19:50:00,81.4,77.5,29.64,WSW,257,0.0,0.0,88,0.00,,---,0.42,VWS V14.01,2013-08-13 23:50:00,
2013-08-13 20:00:00,81.4,77.5,29.64,WSW,257,0.0,0.0,88,0.00,,---,0.42,VWS V14.01,2013-08-14 00:00:00,
2013-08-13 20:10:00,80.1,76.2,29.64,WSW,256,0.0,0.0,88,0.00,,---,0.42,VWS V14.01,2013-08-14 00:10:00,
2013-08-13 20:20:00,80.1,76.2,29.65,WSW,256,0.0,0.0,88,0.00,,---,0.42,VWS V14.01,2013-08-14 00:20:00,
2013-08-13 20:30:00,79.2,75.3,29.66,West,263,0.0,0.0,88,0.00,,---,0.42,VWS V14.01,2013-08-14 00:30:00,
2013-08-13 20:40:00,78.6,77.7,29.66,West,263,0.0,0.0,97,0.00,,---,0.42,VWS V14.01,2013-08-14 00:40:00,
2013-08-13 20:50:00,78.5,77.6,29.66,West,264,0.0,0.0,97,0.00,,---,0.42,VWS V14.01,2013-08-14 00:50:00,
2013-08-13 21:00:00,78.3,77.4,29.66,West,263,0.0,0.0,97,0.00,,---,0.42,VWS V14.01,2013-08-14 01:00:00,
2013-08-13 21:10:00,77.9,77.0,29.66,West,263,0.0,0.0,97,0.00,,---,0.42,VWS V14.01,2013-08-14 01:10:00,
2013-08-13 21:20:00,77.7,77.4,29.66,West,263,0.0,0.0,99,0.00,,---,0.42,VWS V14.01,2013-08-14 01:20:00,
2013-08-13 21:30:00,77.7,77.4,29.67,West,263,0.0,0.0,99,0.00,,---,0.42,VWS V14.01,2013-08-14 01:30:00,
2013-08-13 21:40:00,77.2,77.2,29.67,West,264,0.0,0.0,100,0.00,,---,0.42,VWS V14.01,2013-08-14 01:40:00,
2013-08-13 21:50:00,77.0,77.0,29.67,West,264,0.0,0.0,100,0.00,,---,0.42,VWS V14.01,2013-08-14 01:50:00,
2013-08-13 22:00:00,76.8,76.8,29.67,West,263,0.0,0.0,100,0.00,,---,0.42,VWS V14.01,2013-08-14 02:00:00,
2013-08-13 22:10:00,76.8,76.8,29.67,West,264,0.0,0.0,100,0.00,,---,0.42,VWS V14.01,2013-08-14 02:10:00,
2013-08-13 22:20:00,77.0,77.0,29.67,West,263,0.0,0.0,100,0.00,,---,0.42,VWS V14.01,2013-08-14 02:20:00,
2013-08-13 22:30:00,77.2,77.2,29.67,West,263,0.0,0.0,100,0.00,,---,0.42,VWS V14.01,2013-08-14 02:30:00,
2013-08-13 22:40:00,77.2,77.2,29.67,West,263,0.0,0.0,100,0.00,,---,0.42,VWS V14.01,2013-08-14 02:40:00,
2013-08-13 22:50:00,77.2,77.2,29.67,West,263,0.0,0.0,100,0.00,,---,0.42,VWS V14.01,2013-08-14 02:50:00,
2013-08-13 23:00:00,77.2,77.2,29.66,West,264,0.0,0.0,100,0.00,,---,0.42,VWS V14.01,2013-08-14 03:00:00,
2013-08-13 23:10:00,77.0,77.0,29.66,West,263,0.0,0.0,100,0.00,,---,0.42,VWS V14.01,2013-08-14 03:10:00,
2013-08-13 23:20:00,76.8,76.8,29.67,West,263,0.0,0.0,100,0.00,,---,0.42,VWS V14.01,2013-08-14 03:20:00,
2013-08-13 23:30:00,76.5,76.5,29.66,West,263,0.0,0.0,100,0.00,,---,0.42,VWS V14.01,2013-08-14 03:30:00,
2013-08-13 23:40:00,76.3,76.3,29.66,West,263,0.0,0.0,100,0.00,,---,0.42,VWS V14.01,2013-08-14 03:40:00,
2013-08-13 23:50:00,76.1,76.1,29.67,West,264,0.0,0.0,100,0.00,,---,0.42,VWS V14.01,2013-08-14 03:50:00,